EHI
0 0 0 0 0 0 0 0 0 1 3 6 7 8 7 5 2 1 0 0 0 0 0 0 0 0 0 0 0 0 0 0 0 0 0 0 0 0 0 0 0 0 0 0
0 0 0 0 0 0 0 0 0 0 1 3 4 4 4 3 2 1 0 0 0 0 0 0 0 0 0 0 0 0 0 0 0 0 0 0 0 0 0 0 0 0 0 0
0 0 0 0 0 0 0 0 0 0 0 1 1 1 1 1 1 0 0 0 0 0 0 0 0 0 0 0 0 0 0 0 0 0 0 0 0 0 0 0 0 0 0 0
0 0 0 0 0 0 0 0 0 0 0 0 0 0 0 0 0 0 0 0 0 0 0 0 0 0 0 0 0 0 0 0 0 0 0 0 0 0 0 0 0 0 0 0
0 0 0 0 0 0 0 0 0 0 0 0 0 0 0 0 0 0 0 0 0 0 0 0 0 0 0 0 0 0 0 0 0 0 0 0 0 0 0 0 0 0 0 0
0 0 0 0 0 0 0 0 0 0 0 0 0 0 0 0 0 0 0 0 0 0 0 0 0 0 0 0 0 0 0 0 0 0 0 0 0 0 0 0 0 0 0 0
0 0 0 0 0 0 0 0 0 0 0 0 0 0 0 0 0 0 0 0 0 0 0 0 0 0 0 0 0 0 0 0 0 0 0 0 0 0 0 0 0 0 0 0
0 0 0 0 0 0 0 0 0 0 0 0 0 0 0 0 0 0 0 0 0 0 0 0 0 0 0 0 0 0 0 0 0 0 0 0 0 0 0 0 0 0 0 0
0 0 0 0 0 0 0 0 0 0 0 0 0 0 0 0 0 0 0 0 0 0 0 0 0 0 0 0 0 0 0 0 0 0 0 0 0 0 0 0 0 0 0 0
0 0 0 0 0 0 0 0 0 0 0 0 0 0 0 0 0 0 0 0 0 0 0 0 0 0 0 0 0 0 0 0 0 0 0 0 0 0 0 0 0 0 0 0
0 0 0 0 0 0 0 0 0 0 0 0 0 0 0 0 0 0 0 0 0 0 0 0 0 0 0 0 0 0 0 0 0 0 0 0 0 0 0 0 0 0 0 0
0 0 0 0 0 0 0 0 0 0 0 0 0 0 0 0 0 0 0 0 0 0 0 0 0 0 0 0 0 0 0 0 0 0 0 0 0 0 0 0 0 0 0 0
0 0 0 0 0 0 0 0 0 0 0 0 0 0 0 0 0 0 0 0 0 0 0 0 0 0 0 0 0 0 0 0 0 0 0 0 0 0 0 0 0 0 0 0
0 0 0 0 0 0 0 0 0 0 0 0 0 0 0 0 0 0 0 0 0 0 0 0 0 0 0 0 0 0 0 0 0 0 0 0 0 0 0 0 0 0 0 0
0 0 0 0 0 0 0 0 0 0 0 0 0 0 0 0 0 0 0 0 0 0 0 0 0 0 0 0 0 0 0 0 0 0 0 0 0 0 0 0 0 0 0 0
0 0 0 0 0 0 0 0 0 0 0 0 0 0 0 0 0 0 0 0 0 0 0 0 0 0 0 0 0 0 0 0 0 0 0 0 0 0 0 0 0 0 0 0
0 0 0 0 0 0 0 0 0 0 0 0 0 0 0 0 0 0 0 0 0 0 0 0 0 0 0 0 0 0 0 0 0 0 0 0 0 0 0 0 0 0 0 0
0 0 0 0 0 0 0 0 0 0 0 0 0 0 0 0 0 0 0 0 0 0 0 0 0 0 0 0 0 0 0 0 0 0 0 0 0 0 0 0 0 0 0 0
0 0 0 0 0 0 0 0 0 0 0 0 0 0 0 0 0 0 0 0 0 0 0 0 0 0 0 0 0 0 0 0 0 0 0 0 0 0 0 0 0 0 0 0
0 0 0 0 0 0 0 0 0 0 0 0 0 0 0 0 0 0 0 0 0 0 0 0 0 0 0 0 0 0 0 0 0 0 0 0 0 0 0 0 0 0 0 0
0 0 0 0 0 0 0 0 0 0 0 0 0 0 0 0 0 0 0 0 0 0 0 0 0 0 0 0 0 0 0 0 0 0 0 0 0 0 0 0 0 0 0 0
0 0 0 0 0 0 0 0 0 0 0 0 0 0 0 0 0 0 0 0 0 0 0 0 0 0 0 0 0 0 0 0 0 0 0 0 0 0 0 0 0 0 0 0
0 0 0 0 0 0 0 0 0 0 0 0 0 0 0 0 0 0 0 0 0 0 0 0 0 0 0 0 0 0 0 0 0 0 0 0 0 0 0 0 0 0 0 0
0 0 0 0 0 0 0 0 0 0 0 0 0 0 0 0 0 0 0 0 0 0 0 0 0 0 0 0 0 0 0 0 0 0 0 0 0 0 0 0 0 0 0 0
0 0 0 0 0 0 0 0 0 0 0 0 0 0 0 0 0 0 0 0 0 0 0 0 0 0 0 0 0 0 0 0 0 0 0 0 0 0 0 0 0 0 0 0
0 0 0 0 0 0 0 0 0 0 0 0 0 0 0 0 0 0 0 0 0 0 0 0 0 0 0 0 0 0 0 0 0 0 0 0 0 0 0 0 0 0 0 0
0 0 0 0 0 0 0 0 0 0 0 0 0 0 0 0 0 0 0 0 0 0 0 0 0 0 0 0 0 0 0 0 0 0 0 0 0 0 0 0 0 0 0 0
Wind_Speed
4 4 4 5 7 5 3 4 6 7 6 4 3 5 6 7 8 8 8 8 8 7 7 7 8 8 8 8 8 8 10 10 9 8 8 8 8 7 6 6 6 5 5 4
4 6 5 7 10 7 6 4 7 11 6 4 6 7 7 7 7 7 7 7 7 7 7 7 7 7 7 8 7 8 9 9 8 8 8 7 7 6 6 6 5 5 4 3
1 3 4 5 6 4 4 4 2 3 5 7 7 8 7 6 7 7 7 7 7 6 6 6 6 6 7 7 7 8 8 8 8 7 7 6 6 6 6 5 5 5 4 4
1 2 1 1 3 6 7 7 6 8 8 7 8 7 7 7 7 7 7 6 6 6 6 6 6 7 7 7 7 8 8 7 6 6 6 5 6 6 5 4 4 3 4 4
3 3 1 2 1 1 3 3 3 5 7 7 7 5 5 6 7 7 6 6 6 6 6 6 7 7 7 7 7 7 6 6 5 5 5 5 6 5 3 3 4 3 3 4
4 4 5 3 1 2 4 1 1 3 5 5 4 1 2 5 7 8 7 6 6 6 7 7 6 6 7 7 6 6 5 4 5 5 5 5 4 4 3 3 3 3 4 4
3 2 2 1 4 1 3 3 2 3 3 4 2 2 6 7 8 8 8 7 7 7 7 6 5 6 6 5 4 3 4 5 5 4 4 4 4 3 3 3 4 4 5 5
2 2 4 4 3 2 2 1 3 2 2 4 6 9 9 9 9 8 8 7 7 6 6 5 5 5 5 3 2 3 4 4 4 3 3 3 4 3 3 3 4 4 5 6
3 3 0 3 2 2 1 2 2 2 4 7 9 8 9 9 8 7 7 6 5 5 5 4 4 3 3 1 1 3 3 3 3 3 3 2 2 2 2 2 2 3 4 5
1 1 1 2 2 3 3 2 2 3 5 7 9 10 10 9 7 6 6 5 4 5 4 3 3 2 1 1 1 3 3 2 2 2 2 2 1 1 0 1 1 2 3 5
1 1 2 1 2 2 4 5 6 6 6 8 11 11 10 8 7 5 4 3 3 4 3 3 3 3 3 2 3 3 2 1 1 1 0 1 1 1 2 2 3 2 3 4
4 5 5 3 2 3 4 5 6 7 8 8 9 10 9 7 5 4 4 3 3 3 3 3 3 3 3 2 3 3 1 0 0 1 1 1 2 3 3 3 4 4 4 5
2 3 5 5 4 4 4 5 6 8 10 10 9 9 8 6 4 4 3 3 3 2 2 2 2 3 2 1 1 2 1 1 1 1 1 1 1 2 3 4 5 5 6 7
6 7 6 3 4 5 7 8 9 10 10 10 8 8 7 5 4 3 2 2 2 2 1 1 2 3 3 1 1 2 2 3 2 1 1 1 1 1 1 2 3 4 5 7
3 4 6 7 7 7 8 9 10 10 9 8 7 6 6 5 3 2 2 2 3 2 1 2 3 4 3 2 2 3 3 2 2 1 1 1 1 0 1 1 2 3 4 5
7 9 10 9 9 8 9 9 10 8 7 6 5 5 4 4 3 2 3 3 3 1 2 2 4 5 4 3 3 3 2 3 3 2 1 0 0 0 0 1 1 3 4 4
11 9 9 9 9 8 8 7 7 7 6 6 5 5 5 5 5 4 3 2 2 1 1 3 5 6 5 4 3 2 1 1 1 1 1 0 0 0 1 1 1 2 3 4
9 9 10 11 9 8 8 7 7 6 5 5 6 5 5 5 4 3 2 2 2 2 3 4 5 6 5 4 1 0 0 0 1 1 1 1 1 1 1 1 1 2 3 4
9 10 9 9 8 8 7 6 6 6 6 6 6 5 4 4 4 3 2 2 2 2 4 6 7 5 5 4 2 1 2 2 2 2 2 3 3 2 2 1 1 2 3 4
9 9 9 8 8 7 7 6 6 6 5 6 6 5 4 4 4 4 3 1 1 3 4 5 4 4 4 4 3 2 3 3 3 3 3 3 3 2 2 2 2 3 3 4
10 10 9 9 7 7 7 8 7 7 6 6 7 6 5 4 3 3 2 0 3 3 3 4 3 3 3 3 4 3 3 3 3 3 2 2 3 3 3 3 3 3 4 4
9 9 9 9 8 7 6 7 7 7 6 5 5 6 5 4 3 2 1 1 2 2 2 2 2 3 4 4 3 3 3 4 3 3 2 2 3 3 3 3 3 3 4 4
9 8 9 9 9 7 6 6 7 8 7 6 6 6 5 4 3 3 1 2 1 1 1 2 2 4 6 4 3 4 4 4 3 3 3 3 3 3 3 3 3 3 4 4
8 9 9 8 8 8 7 5 6 6 6 6 5 6 5 4 2 1 1 1 1 0 1 1 3 6 6 3 3 3 3 3 3 3 3 3 3 3 3 3 3 4 4 5
9 8 8 9 8 6 6 6 6 5 5 3 3 4 3 3 3 3 2 1 1 1 1 2 4 6 4 3 3 3 3 3 3 3 3 3 4 4 3 3 3 3 4 4
8 8 8 8 7 6 6 5 4 4 4 3 2 2 3 2 3 3 2 1 1 1 1 1 2 3 3 3 3 3 3 3 4 4 4 4 4 4 3 4 5 4 3 4
8 7 5 5 4 6 6 6 5 5 5 4 3 3 3 3 3 3 3 2 1 1 1 2 2 3 3 3 3 3 3 3 3 4 3 3 3 3 3 4 3 3 3 4
Wind_Direction
43 29 73 59 22 22 70 144 151 153 141 130 91 89 84 83 79 72 67 65 65 67 66 66 67 67 68 68 69 78 83 83 83 82 81 80 78 76 74 76 82 84 81 70
35 26 54 48 19 23 39 41 117 127 120 93 87 79 72 72 77 75 67 64 64 66 69 72 75 78 77 76 75 81 84 85 84 83 81 80 78 75 71 67 66 67 60 52
353 350 41 12 352 22 48 26 115 137 126 117 88 68 55 55 67 66 63 65 63 64 70 74 75 81 82 79 78 79 80 82 81 82 80 74 77 71 65 60 59 56 45 42
99 60 203 246 46 83 81 48 62 101 107 101 98 82 54 49 66 66 65 68 67 71 76 73 75 76 75 74 75 77 77 77 81 83 80 73 69 64 56 52 51 42 36 30
109 113 125 222 269 7 101 61 40 108 112 112 114 97 64 54 67 72 71 74 76 80 84 79 75 77 78 72 72 75 76 77 78 82 79 69 63 55 46 51 45 36 26 17
118 146 211 211 32 18 107 147 189 131 138 139 138 133 118 94 85 83 79 79 83 83 81 77 71 76 78 73 71 70 74 77 73 76 79 74 67 58 47 55 46 33 22 7
122 159 252 5 321 18 165 226 146 129 145 155 157 117 116 105 92 89 86 83 82 80 75 70 69 77 76 70 62 64 78 76 71 74 83 83 72 60 59 56 43 26 10 351
124 164 244 343 11 130 166 60 81 95 113 120 113 109 110 106 101 96 90 82 80 79 70 56 60 74 73 60 52 76 83 78 70 66 77 90 86 69 56 51 40 18 0 352
180 201 310 16 59 41 82 91 82 105 121 128 127 123 116 109 103 96 92 84 77 78 66 44 40 68 74 19 91 100 93 86 79 73 68 80 92 82 53 40 31 3 356 351
144 216 116 67 54 40 53 77 88 121 132 135 129 126 119 114 107 97 88 80 76 74 63 33 18 38 31 315 130 122 114 103 90 81 65 53 59 76 66 346 346 345 346 343
194 178 114 70 72 72 72 81 88 94 109 125 126 125 121 117 111 102 90 78 76 79 69 37 26 31 22 54 107 109 107 96 74 66 22 344 331 269 257 250 243 287 312 318
222 204 174 174 144 116 100 98 108 112 107 112 120 121 118 114 110 107 99 89 84 77 70 44 35 29 27 59 110 122 121 107 310 303 312 315 322 323 303 289 305 303 300 306
170 117 112 120 116 105 106 106 109 114 119 117 113 116 115 112 108 106 104 107 104 96 80 51 31 14 7 47 123 152 199 234 250 261 270 287 306 325 329 340 356 360 349 344
121 111 106 116 118 109 110 109 108 108 111 112 112 111 109 104 104 113 128 138 128 113 95 36 0 335 319 301 226 228 233 239 233 242 245 255 270 293 310 329 339 338 337 334
110 116 127 120 113 110 112 114 111 110 110 107 109 113 115 119 129 141 144 124 105 89 39 358 336 311 301 279 256 251 245 240 231 231 239 240 247 319 1 355 344 332 334 337
109 105 113 118 120 119 118 119 117 118 116 113 115 120 125 127 123 113 110 118 112 86 355 339 314 299 301 287 273 269 262 254 211 198 221 232 170 133 51 38 6 348 345 343
131 136 137 135 132 128 127 128 126 125 123 124 131 127 119 111 103 97 94 99 106 78 351 321 304 306 308 299 277 267 270 284 177 155 152 137 99 104 112 99 11 349 340 342
149 148 150 147 144 137 132 130 130 131 135 140 133 128 128 129 132 131 120 98 76 24 341 320 313 315 323 329 324 294 190 109 97 105 101 93 94 91 104 97 11 354 346 348
136 140 144 144 142 138 138 140 143 142 140 137 136 139 139 140 138 133 116 94 64 348 317 323 331 341 345 355 26 72 87 89 81 73 76 84 81 73 74 62 32 7 357 360
141 145 145 143 142 139 141 143 140 138 141 138 131 128 130 138 138 130 113 92 277 272 296 320 337 349 354 8 44 69 78 82 82 76 75 77 78 72 63 57 44 28 17 10
149 148 148 147 146 146 145 144 142 144 146 145 145 151 152 146 140 131 117 350 308 320 329 344 357 355 6 40 59 69 71 74 74 72 76 82 83 77 66 57 48 34 21 11
151 150 149 146 140 141 145 144 143 142 140 143 140 137 136 138 137 120 131 229 284 322 345 349 357 22 58 65 63 67 69 71 71 71 74 79 85 82 71 63 50 36 24 14
150 149 147 147 146 143 138 141 145 145 149 154 155 158 160 160 154 148 209 265 274 317 356 351 24 64 76 65 63 65 67 67 64 65 71 76 79 80 76 68 53 38 26 17
145 146 146 141 131 130 140 153 149 150 154 158 164 160 150 144 154 201 209 231 214 120 12 5 70 88 81 68 66 66 64 65 66 70 75 76 77 76 74 69 56 40 30 25
143 140 136 137 141 150 152 141 130 129 131 133 146 153 153 153 160 176 171 177 160 101 27 38 93 96 83 75 71 70 69 72 80 82 79 82 81 78 73 65 54 42 32 24
143 147 151 156 153 146 140 135 135 143 140 140 147 146 137 128 127 127 134 138 128 88 56 50 87 89 85 82 78 79 79 80 77 75 81 84 86 84 78 68 58 45 34 25
131 131 129 125 130 140 142 143 145 157 164 162 168 166 152 143 138 139 136 125 106 67 64 79 91 94 92 88 84 82 82 83 84 84 84 85 85 84 80 75 61 49 38 30